Location: Unspecified
(0.0000°N, 0.0000°E)
Time: 15:28:10
(UTC+00:00)

Vanguard 2 Rocket - Pass Details

Date: 16 October 2022
Orbit: 553 x 3313 km, 32.9° (Epoch: 27 September)

Event Time Altitude Azimuth Distance (km) Brightness Sun altitude
Rises 17:49:03 0° 267° (W) 6,211 14.2 -0.9°
Reaches altitude 10° 17:53:28 10° 276° (W) 5,530 12.6 -2.0°
Maximum altitude 18:08:50 34° 334° (NNW) 4,509 10.6 -5.8°
Drops below altitude 10° 18:25:57 10° 33° (NNE) 6,056 10.7 -10.0°
Sets 18:31:14 0° 42° (NE) 6,837 10.9 -11.3°
